Home > Weather > Stavern > Past weeks

Flag for Norway Past Weather in Stavern, Norway — Yesterday and Last 2 Weeks

Now
68 °F

Passing clouds.


Feels Like: 68 °F
Forecast: 56 / 65 °F
Wind: 10 mph from South

Location: Torp

Current Time: Jun 25, 2016 at 2:26:45 PM

Latest Report: Jun 25, 2016 at 1:50 PM


Visibility: N/A

Pressure: 30.01 "Hg

Humidity: 78%

Dew Point: 61 °F

Location of StavernLocation

Past Weather in Stavern — Graph

°F

Stavern Temperature Yesterday

Maximum temperature yesterday: 64 °F (at 1:20 PM)
Minimum temperature yesterday: 57 °F (at 12:20 AM)
Average temperature yesterday: 61 °F

High & Low Weather Summary for the Past Weeks

 TemperatureHumidityPressure
High73 °F (Jun 16, 3:50 PM)100% (Jun 11, 3:50 AM)30.18 "Hg (Jun 11, 3:50 AM)
Low41 °F (Jun 11, 3:50 AM)29% (Jun 13, 6:50 PM)29.56 "Hg (Jun 16, 6:20 PM)
Average59 °F79%29.83 "Hg
* Reported Jun 10 12:20 PM — Jun 25 12:50 PM, Stavern, Weather by CustomWeather, © 2016

Note: Actual official high and low records may vary slightly from our data, if they occured in-between our weather recording intervals... More about our weather records

Advertising

Stavern Weather History for the Previous 24 Hours

Scroll right to see more
 ConditionsComfort  
Time TempWeatherWind HumidityBarometerVisibility
12:50 PM
Sat, Jun 25
70 °FPassing clouds.6 mph69%29.98 "HgN/A
12:20 PM70 °FPassing clouds.5 mph60%29.98 "HgN/A
11:50 AM70 °FPassing clouds.5 mph73%30.01 "HgN/A
11:20 AM68 °FPassing clouds.5 mph83%30.01 "HgN/A
10:50 AM68 °FPassing clouds.3 mph83%30.01 "HgN/A
10:20 AM66 °FScattered clouds.3 mph88%29.98 "HgN/A
9:50 AM66 °FScattered clouds.3 mph88%29.98 "HgN/A
9:20 AM64 °FScattered clouds.5 mph94%29.98 "HgN/A
8:50 AM63 °FScattered clouds.5 mph100%29.98 "HgN/A
8:20 AM64 °FScattered clouds.5 mph94%29.98 "HgN/A
7:50 AM64 °FPassing clouds.No wind88%29.98 "HgN/A
7:20 AM63 °FPassing clouds.5 mph94%29.98 "HgN/A
6:50 AM61 °FScattered clouds.6 mph100%29.95 "Hg6 mi
6:20 AM59 °FPartly sunny.6 mph100%29.95 "Hg6 mi
5:50 AM59 °FPartly sunny.3 mph100%29.95 "HgN/A
5:20 AM59 °FLow clouds.3 mph100%29.95 "HgN/A
4:50 AM59 °FPassing clouds.3 mph100%29.95 "Hg0 mi
4:20 AM59 °FPassing clouds.5 mph100%29.95 "Hg4 mi
3:50 AM59 °FMostly cloudy.2 mph100%29.95 "HgN/A
3:20 AM59 °FLow clouds.5 mph100%29.95 "HgN/A
2:50 AM59 °FLow clouds.5 mph100%29.95 "HgN/A
2:20 AM59 °FMostly cloudy.6 mph100%29.95 "Hg6 mi
1:50 AM59 °FMostly cloudy.6 mph100%29.95 "Hg5 mi
1:20 AM59 °FLow clouds.7 mph100%29.95 "Hg5 mi
12:50 AM59 °FFog.7 mph100%29.95 "Hg3 mi
12:20 AM59 °FFog.8 mph100%29.95 "Hg1 mi
11:50 PM
Fri, Jun 24
59 °FFog.9 mph100%29.95 "Hg3 mi
11:20 PM61 °FLow clouds.9 mph100%29.95 "HgN/A
10:50 PM61 °FLow clouds.8 mph100%29.95 "HgN/A
10:20 PM61 °FLow clouds.10 mph100%29.92 "HgN/A
9:50 PM61 °FMore clouds than sun.14 mph100%29.92 "HgN/A
9:20 PM61 °FMore clouds than sun.14 mph100%29.92 "HgN/A
8:50 PM61 °FFog.12 mph100%29.92 "Hg3 mi
8:20 PM63 °FFog.12 mph100%29.92 "Hg1 mi
7:50 PM64 °FFog.9 mph100%29.92 "Hg1 mi
7:20 PM63 °FFog.8 mph100%29.92 "Hg2 mi
6:50 PM63 °FLight rain. Fog.9 mph100%29.92 "Hg2 mi
6:20 PM64 °FFog.8 mph100%29.92 "Hg4 mi
5:50 PM64 °FLow clouds.10 mph100%29.92 "Hg5 mi
5:20 PM64 °FPartly sunny.10 mph100%29.92 "Hg5 mi
4:50 PM64 °FLow clouds.9 mph100%29.92 "Hg6 mi
4:20 PM64 °FLow clouds.9 mph100%29.95 "HgN/A
3:50 PM64 °FMore clouds than sun.7 mph100%29.95 "HgN/A
3:20 PM64 °FBroken clouds.3 mph100%29.95 "HgN/A
2:50 PM63 °FDrizzle. Partly sunny.3 mph100%29.95 "HgN/A
2:20 PM63 °FFog.3 mph100%29.95 "Hg5 mi
Weather by CustomWeather, © 2016

See weather overviewHow to use our weather pages